FENGYUN 1C DEB

Satellite information

Favourite Embed

Satellite Type and Status

DEBRISIN ORBIT

Key statistics

Satellite FENGYUN 1C DEB at a glance.

Uptime

9659

Days in orbit

Revolutions

≈ 14.2

Per day

Orbit

SSO

Sun Synchronous Orbit

Inclination

98.7

Latest

Satellite identification and parameters

Extended collection of information and parameters for FENGYUN 1C DEB.

Object identification

Identified? True

Debris? True

Object name: FENGYUN 1C DEB

International designator: 1999-025EQG

Object number (NORAD): 38135

Object ID (CCSDS): 38135

Country: PEOPLES REPUBLIC OF CHINA (PRC)

Current information (Y/N): Y

RCS size: SMALL

Orbital parameters

Period: 101.053 minutes

Inclination: 98.6679 deg

SMA: 7186.645 km

Apoapsis: 968.407 km

Periapsis: 648.612 km

RAAN: 342.426 deg

Eccentricy: 0.02224923

Argument of periapsis: 251.0805 deg

Mean anomaly: 106.6139 deg

Mean motion: 14.24995569 rev/day

Mean motion (dot): 0.00001672 rev/day2

B* drag term: 0.00056845759 1/REarth

Two-line elements (TLE)

Creation date: Oct. 12, 2025, 3:37 a.m.

Reference frame: TEME

Reference center: EARTH

Epoch: Oct. 11, 2025, 9:58 p.m. UTC

TLE line 0: 0 FENGYUN 1C DEB

TLE line 1: 1 38135U 99025EQG 25284.91570834 .00001672 00000-0 56846-3 0 9991

TLE line 2: 2 38135 98.6679 342.4260 0222492 251.0805 106.6139 14.24995569601603

Live tracking on map

Real-time ground track for satellite FENGYUN 1C DEB.

In-orbit conjunctions

A list of the most updated potential collisions computed for object FENGYUN 1C DEB.

Target Orbit TCA Probability of collision Miss distance Type
PEGASUS R/B LEO 2024-12-24 08:16:37 0.001505614 95.0 (m) ROCKET BODY

Associated space launch

Chinese polar orbiting meteorological satellite

FENGYUN 1C DEB was lifted into orbit during the mission ‘Long March 4B | Feng Yun 1C’, on board a Long March 4B space rocket.

The launch took place on May 10, 1999, 1:33 a.m. from Launch Complex 7.

For more information about the launch, click the button.

Launch to space Long March 4B | Feng Yun 1C
Long March 4B | Feng Yun 1C

Agency: N/A

Status: Launch Successful

Launch date: May 10, 1999, 1:33 a.m. UTC

Rocket: Long March 4B

Launch pad: Launch Complex 7

Location: Taiyuan Satellite Launch Center, People's Republic of China

...

Latest news about this satellite

There are no fresh news available about this satellite. Check back as we update our databases every day.


Newsletter sign-up

Weekly statistics, charts and insights to help you stay on top of the space industry.